Location: New Mesquite
(33.1168°N, 96.4336°W)
Time: 22:44:29
(UTC+00:00)

Meteor 1-27 Rocket - Pass Details

Date: 05 July 2022
Orbit: 829 x 911 km, 81.3° (Epoch: 16 August)

Event Time Altitude Azimuth Distance (km) Brightness Sun altitude
Rises 07:23:58 0° 16° (NNE) 3,411 8.0 -32.7°
Reaches altitude 10° 07:28:11 10° 47° (NE) 2,455 6.8 -32.4°
Maximum altitude 07:30:15 12° 69° (ENE) 2,304 6.3 -32.3°
Drops below altitude 10° 07:32:18 10° 91° (E) 2,439 6.2 -32.2°
Enters shadow 07:33:22 - 101° (E) 2,608 6.3 -32.1°
